Weather History for Greenville, AL

Change the Weather History Date:

Wednesday, February 26, 2014

  Actual Average Record
Temperature  
Mean Temperature 46 °F -  
Max Temperature 54 °F 64 °F 85 °F (1962)
Min Temperature 37 °F 38 °F 18 °F (1967)
Degree Days  
Heating Degree Days 20    
Moisture  
Dew Point 38 °F    
Average Humidity 79    
Maximum Humidity 93    
Minimum Humidity 49    
Precipitation  
Precipitation 0.44 in - - ()
Sea Level Pressure  
Sea Level Pressure 29.94 in    
Wind  
Wind Speed 7 mph (North)    
Max Wind Speed 16 mph    
Max Gust Speed 25 mph    
Visibility 8 miles    
Events Rain    
Averages and records for this station are not official NWS values.
T = Trace of Precipitation, MM = Missing Value Source: NWS Daily Summary

Daily Weather History Graph

Daily Weather History Graph

Search for Another Location

Airport:

Trip Planner

Search our weather history database for the weather conditions in past years. The results will help you decide how hot, cold, wet, or windy it might be!

Date:

Astronomy

Feb. 26, 2014 Rise Set
Actual Time 6:17 AM CST 5:42 PM CST
Civil Twilight 5:52 AM CST 6:06 PM CST
Nautical Twilight 5:24 AM CST 6:34 PM CST
Astronomical Twilight 4:55 AM CST 7:03 PM CST
Moon 3:54 AM CST (2/26) 3:02 PM CST (2/26)
Length of Visible Light 12h 14m
Length of Day
11h 25m
Waning Crescent, 10% of the Moon is Illuminated
Feb 26
Waning Crescent
Mar 1
New
Mar 8
First Quarter
Mar 16
Full
Mar 23
Last Quarter

Hourly Weather History & Observations

Time (CST) Temp. Windchill Dew Point Humidity Pressure Visibility Wind Dir Wind Speed Gust Speed Precip Events Conditions
12:56 AM 54.0 °F - 46.9 °F 77% 29.90 in 10.0 mi Calm Calm - 0.00 in Rain Light Rain
1:39 AM 51.8 °F - 48.2 °F 88% 29.90 in 2.0 mi Calm Calm - 0.08 in Rain Rain
1:48 AM 51.8 °F - 48.2 °F 88% 29.90 in 5.0 mi NW 3.5 mph - 0.08 in Rain Light Rain
1:56 AM 52.0 °F - 48.9 °F 89% 29.89 in 6.0 mi Calm Calm - 0.09 in Rain Light Rain
2:56 AM 51.1 °F - 48.9 °F 92% 29.89 in 3.0 mi Calm Calm - 0.09 in Rain Rain
3:36 AM 51.8 °F - 48.2 °F 88% 29.86 in 2.5 mi Calm Calm - 0.07 in Rain Rain
3:43 AM 51.8 °F - 48.2 °F 88% 29.87 in 3.0 mi Calm Calm - 0.08 in Rain Light Rain
3:56 AM 51.1 °F - 48.9 °F 92% 29.88 in 4.0 mi North 8.1 mph - 0.09 in Rain Light Rain
4:08 AM 51.8 °F - 48.2 °F 88% 29.88 in 3.0 mi North 9.2 mph - 0.02 in Rain Rain
4:18 AM 51.8 °F - 48.2 °F 88% 29.89 in 4.0 mi North 10.4 mph - 0.03 in Rain Light Rain
4:56 AM 50.0 °F - 48.0 °F 93% 29.90 in 6.0 mi North 10.4 mph - 0.04 in Rain Light Rain
5:53 AM 46.4 °F 39.8 °F 44.6 °F 93% 29.95 in 5.0 mi North 16.1 mph 24.2 mph 0.06 in Rain Rain
5:56 AM 46.9 °F - 45.0 °F 93% 29.95 in 5.0 mi North 15.0 mph - 0.06 in Rain Rain
6:56 AM 45.0 °F 38.9 °F 42.1 °F 90% 29.95 in 7.0 mi North 12.7 mph 21.9 mph 0.04 in Rain Light Rain
7:06 AM 44.6 °F 37.8 °F 42.8 °F 93% 29.96 in 7.0 mi North 15.0 mph 21.9 mph 0.00 in Rain Light Rain
7:44 AM 42.8 °F 35.8 °F 39.2 °F 87% 29.97 in 7.0 mi North 13.8 mph 17.3 mph 0.01 in Rain Light Rain
7:56 AM 43.0 °F 36.8 °F 39.9 °F 89% 29.99 in 6.0 mi North 11.5 mph - 0.02 in Rain Light Rain
8:20 AM 42.8 °F 35.8 °F 39.2 °F 87% 30.00 in 7.0 mi North 13.8 mph 19.6 mph 0.00 in Rain Light Rain
8:56 AM 42.1 °F 36.1 °F 39.9 °F 92% 30.00 in 10.0 mi North 10.4 mph 25.3 mph 0.00 in   Overcast
9:56 AM 41.0 °F 34.7 °F 39.0 °F 93% 29.98 in 8.0 mi NNE 10.4 mph 18.4 mph 0.01 in Rain Light Rain
10:56 AM 43.0 °F 36.8 °F 37.9 °F 82% 29.96 in 10.0 mi North 11.5 mph - 0.00 in Rain Light Rain
10:59 AM 42.8 °F 36.2 °F 39.2 °F 87% 29.96 in 10.0 mi North 12.7 mph - 0.00 in Rain Light Rain
11:06 AM 42.8 °F 35.8 °F 37.4 °F 81% 29.96 in 10.0 mi North 13.8 mph - 0.00 in   Overcast
11:14 AM 42.8 °F 35.8 °F 37.4 °F 81% 29.95 in 10.0 mi North 13.8 mph - 0.00 in   Overcast
11:46 AM 42.8 °F 38.6 °F 35.6 °F 76% 29.96 in 10.0 mi North 6.9 mph - 0.00 in   Overcast
11:56 AM 42.1 °F 36.6 °F 37.0 °F 82% 29.96 in 10.0 mi North 9.2 mph - 0.00 in   Overcast
12:14 PM 42.8 °F 38.6 °F 35.6 °F 76% 29.94 in 10.0 mi North 6.9 mph - N/A   Overcast
12:31 PM 42.8 °F 37.0 °F 35.6 °F 76% 29.94 in 10.0 mi North 10.4 mph - N/A   Overcast
12:40 PM 41.0 °F 34.7 °F 35.6 °F 81% 29.93 in 10.0 mi NNW 10.4 mph - N/A   Overcast
12:56 PM 41.0 °F 36.4 °F 35.1 °F 79% 29.92 in 10.0 mi NNW 6.9 mph - N/A   Overcast
1:22 PM 42.8 °F 37.0 °F 33.8 °F 70% 29.92 in 10.0 mi North 10.4 mph - N/A   Overcast
1:33 PM 42.8 °F 37.0 °F 33.8 °F 70% 29.91 in 10.0 mi North 10.4 mph - N/A   Overcast
1:40 PM 42.8 °F 35.4 °F 33.8 °F 70% 29.91 in 10.0 mi NNW 15.0 mph - N/A   Overcast
1:56 PM 42.1 °F 35.2 °F 33.1 °F 70% 29.91 in 10.0 mi North 12.7 mph 21.9 mph N/A   Overcast
2:56 PM 44.1 °F 37.4 °F 30.9 °F 60% 29.91 in 10.0 mi NNW 13.8 mph - N/A   Mostly Cloudy
3:13 PM 44.6 °F 38.1 °F 30.2 °F 57% 29.90 in 10.0 mi North 13.8 mph - N/A   Scattered Clouds
3:56 PM 44.1 °F 38.6 °F 26.1 °F 49% 29.91 in 10.0 mi North 10.4 mph 21.9 mph N/A   Scattered Clouds
4:56 PM 42.1 °F 34.9 °F 26.1 °F 53% 29.92 in 10.0 mi NNW 13.8 mph - N/A   Scattered Clouds
5:56 PM 41.0 °F 36.4 °F 28.0 °F 60% 29.94 in 10.0 mi NNW 6.9 mph - N/A   Clear
6:56 PM 39.9 °F 35.1 °F 28.0 °F 63% 29.97 in 10.0 mi NNW 6.9 mph - N/A   Clear
7:56 PM 39.0 °F 34.0 °F 27.0 °F 62% 29.98 in 10.0 mi NNW 6.9 mph - N/A   Clear
8:56 PM 37.9 °F 33.5 °F 28.0 °F 68% 29.99 in 10.0 mi NW 5.8 mph - N/A   Clear
9:56 PM 37.9 °F 33.5 °F 28.0 °F 68% 29.99 in 10.0 mi NNW 5.8 mph - N/A   Clear
10:56 PM 37.9 °F 34.4 °F 28.0 °F 68% 29.99 in 10.0 mi NNW 4.6 mph - N/A   Clear
11:56 PM 37.0 °F 33.3 °F 27.0 °F 67% 29.99 in 10.0 mi NW 4.6 mph - N/A   Clear